Weather History for KAEX - September, 2014

Change the Weather History Date:

Thursday, September 4, 2014

  Actual Average Record
Temperature  
Mean Temperature 82 °F 80 °F  
Max Temperature 93 °F 92 °F 107 °F (2000)
Min Temperature 71 °F 69 °F 55 °F (1974)
Degree Days  
Heating Degree Days 0 0  
Month to date heating degree days 0 0  
Since 1 July heating degree days 0 0  
Cooling Degree Days 17 15  
Month to date cooling degree days 70 63  
Year to date cooling degree days 1978 2050  
Growing Degree Days 32 (Base 50)    
Moisture  
Dew Point 73 °F    
Average Humidity 73    
Maximum Humidity 93    
Minimum Humidity 52    
Precipitation  
Precipitation 0.00 in 0.08 in 2.94 in (1988)
Month to date precipitation 0.13 0.29  
Year to date precipitation 31.48 36.52  
Sea Level Pressure  
Sea Level Pressure 30.03 in    
Wind  
Wind Speed 3 mph (SSE)    
Max Wind Speed 10 mph    
Max Gust Speed 15 mph    
Visibility 10 miles    
Events      
T = Trace of Precipitation, MM = Missing Value Source: NWS Daily Summary

Daily Weather History Graph

Daily Weather History Graph

Search for Another Location

Airport or City:

Trip Planner

Search our weather history database for the weather conditions in past years. The results will help you decide how hot, cold, wet, or windy it might be!

Date:

Astronomy

Sep. 04, 2014 Rise Set
Actual Time 6:47 AM CDT 7:29 PM CDT
Civil Twilight 6:23 AM CDT 7:54 PM CDT
Nautical Twilight 5:54 AM CDT 8:23 PM CDT
Astronomical Twilight 5:24 AM CDT 8:53 PM CDT
Moon 3:56 PM CDT (9/4) 1:51 AM CDT (9/4)
Length of Visible Light 13h 31m
Length of Day
12h 42m
Waxing Gibbous, 74% of the Moon is Illuminated
Sep 4
Waxing Gibbous
Sep 8
Full
Sep 15
Last Quarter
Sep 24
New
Oct 1
First Quarter

Hourly Weather History & Observations

Time (CDT) Temp. Heat Index Dew Point Humidity Pressure Visibility Wind Dir Wind Speed Gust Speed Precip Events Conditions
12:53 AM 75.0 °F - 72.0 °F 90% 30.03 in 10.0 mi Calm Calm - N/A   Clear
1:53 AM 73.9 °F - 72.0 °F 93% 30.01 in 10.0 mi SE 3.5 mph - N/A   Clear
2:53 AM 73.0 °F - 71.1 °F 93% 30.01 in 8.0 mi Calm Calm - N/A   Clear
3:53 AM 73.0 °F - 71.1 °F 93% 30.01 in 10.0 mi Calm Calm - N/A   Clear
4:53 AM 73.0 °F - 71.1 °F 93% 30.02 in 10.0 mi Calm Calm - N/A   Clear
5:53 AM 72.0 °F - 70.0 °F 93% 30.02 in 9.0 mi Calm Calm - N/A   Clear
7:53 AM 73.9 °F - 72.0 °F 93% 30.05 in 8.0 mi Calm Calm - N/A   Clear
8:53 AM 78.1 °F - 73.0 °F 84% 30.06 in 10.0 mi SSE 4.6 mph - N/A   Clear
9:53 AM 82.0 °F 87.4 °F 73.0 °F 74% 30.08 in 10.0 mi SE 3.5 mph - N/A   Clear
10:53 AM 84.9 °F 92.1 °F 73.9 °F 69% 30.08 in 10.0 mi Variable 3.5 mph - N/A   Clear
11:53 AM 89.1 °F 96.0 °F 72.0 °F 57% 30.08 in 10.0 mi Variable 6.9 mph - N/A   Clear
12:53 PM 90.0 °F 96.4 °F 71.1 °F 54% 30.06 in 10.0 mi Variable 5.8 mph - N/A   Clear
1:53 PM 91.0 °F 98.2 °F 72.0 °F 53% 30.05 in 10.0 mi Variable 3.5 mph - N/A   Partly Cloudy
2:53 PM 90.0 °F 96.9 °F 72.0 °F 55% 30.03 in 10.0 mi SSE 6.9 mph - N/A   Scattered Clouds
3:53 PM 91.9 °F 99.5 °F 72.0 °F 52% 30.01 in 10.0 mi Variable 5.8 mph - N/A   Mostly Cloudy
4:53 PM 91.9 °F 99.5 °F 72.0 °F 52% 30.00 in 10.0 mi South 5.8 mph - N/A   Scattered Clouds
5:53 PM 90.0 °F 96.9 °F 72.0 °F 55% 30.00 in 10.0 mi South 5.8 mph - N/A   Clear
6:53 PM 88.0 °F 95.6 °F 73.0 °F 61% 30.01 in 10.0 mi SSE 4.6 mph - N/A   Clear
7:53 PM 81.0 °F 86.7 °F 75.0 °F 82% 30.01 in 10.0 mi East 3.5 mph - N/A   Clear
8:53 PM 80.1 °F 85.1 °F 75.0 °F 85% 30.03 in 10.0 mi Calm Calm - N/A   Clear
9:53 PM 79.0 °F - 75.0 °F 88% 30.04 in 10.0 mi Calm Calm - N/A   Clear
10:53 PM 79.0 °F - 75.0 °F 88% 30.06 in 10.0 mi Calm Calm - N/A   Clear
11:53 PM 79.0 °F - 75.0 °F 88% 30.05 in 10.0 mi Calm Calm - N/A   Clear